Regional Weather Roundup
Issued by NWS

Home | Current Version | Previous Version | Graphics & Text | Print | Product List | Glossary On
Versions: 1 2 3 4 5 6 7 8 9 10 11 12 13 14 15 16 17 18 19 20 21 22 23 24 25 26 27 28 29 30 31 32 33 34 35 36 37 38 39 40 41 42 43 44 45 46 47 48 49 50
000
ASUS43 KMPX 020001
RWRMN
WEATHER ROUNDUP FOR MINNESOTA
NATIONAL WEATHER SERVICE TWIN CITIES/CHANHASSEN MN
600 PM CST SUN FEB 01 2015


NOTE: "FAIR" INDICATES FEW OR NO CLOUDS BELOW 12,000 FEET WITH NO
SIGNIFICANT WEATHER AND/OR OBSTRUCTIONS TO VISIBILITY. N/A MEANS
CURRENT SKY AND/OR WEATHER CONDITIONS ARE NOT AVAILABLE.

MNZ060>063-068>070-020100-
   Twin Cities Metro

CITY           SKY/WX    TMP DP  RH WIND       PRES   REMARKS
TWIN CITIES    MOCLDY    14   0  53 N14       30.23R WCI  -1
6HR MIN TEMP:  14; 6HR MAX TEMP:  17;

ST PAUL        PTCLDY    14   2  58 N17G24    30.25R WCI  -3
CRYSTAL        PTCLDY    14  -2  49 N12       30.24R WCI   0
BLAINE         PTCLDY    14   0  52 N13       30.24R WCI   0
LAKEVILLE      PTCLDY    10   1  67 N5        30.21R WCI   2
EDEN PRAIRIE   CLEAR     14  -1  51 N10       30.22R WCI   1
6HR MIN TEMP:  14; 6HR MAX TEMP:  18;

SOUTH ST PAUL  PTCLDY    15   2  57 N10G18    30.23R WCI   2
LAKE ELMO      FAIR      14   3  62 N10G16    30.23R WCI   1
$$
MNZ001>005-007-008-013>017-022>024-027-028-020100-
   Northwest Minnesota

CITY           SKY/WX    TMP DP  RH WIND       PRES   REMARKS
BEMIDJI        CLEAR     -2 -15  55 CALM      30.31F
HALLOCK        CLEAR     -4 -13  65 CALM      30.39F
ROSEAU         CLEAR     -2 -13  60 SW3       30.36F
WARROAD        CLEAR     -6 -15  65 SW5       30.35F WCI -17
THIEF RVR FALL CLEAR     -2 -11  65 W5        30.37F WCI -12
CROOKSTON      CLEAR     -2 -11  65 NW5       30.43F WCI -12
FOSSTON        CLEAR     -6 -13  71 CALM      30.36S
DETROIT LAKES  CLEAR      1  -8  66 NW8       30.34S WCI -12
MOORHEAD       CLEAR      1  -9  60 N8        30.42R WCI -12
PARK RAPIDS    CLEAR      3 -13  47 N8        30.29S WCI -10
MAHNOMEN       FAIR       0 -11  62 N7        30.36S WCI -13
$$
MNZ006-009>011-018-025>026-020100-
   North Central Minnesota

CITY           SKY/WX    TMP DP  RH WIND       PRES   REMARKS
BAUDETTE       CLEAR     -8 -19  58 CALM      30.33F
FLAG ISLAND    CLEAR     -9 -17  70 S7        30.34F WCI -24
INTL FALLS     CLEAR    -13 -20  71 CALM      30.32F
6HR MIN TEMP: -13; 6HR MAX TEMP:   2;

WASKISH        CLEAR     -6 -13  71 CALM      30.34S
BIG FORK       CLEAR     -2 -18  46 CALM      30.30S
LONGVILLE      CLEAR      0 -15  50 CALM      30.30S
GRAND RAPIDS   CLEAR      1 -15  46 N7        30.26F WCI -11
CRANE LAKE     CLEAR    -13 -20  70 CALM      30.33S
ORR            CLEAR     -9 -18  64 CALM      30.27R
COOK           CLEAR     -2 -17  50 CALM      30.29S
WALKER         FAIR       0 -14  50 NW3       30.31S
$$
MNZ012-019>021-037-020100-
   Northeast Minnesota

CITY           SKY/WX    TMP DP  RH WIND       PRES   REMARKS
DULUTH         PTCLDY     4 -14  43 N8        30.23S WCI  -9
6HR MIN TEMP:   4; 6HR MAX TEMP:  10;

ELY            CLEAR     -8 -17  65 CALM      30.25F
HIBBING        CLEAR     -3 -17  51 CALM      30.26F
EVELETH        CLEAR      1 -15  46 N3        30.27S
DULUTH HARBOR  CLEAR     10  -8  44 NW10      30.31S WCI  -3
TWO HARBORS    CLEAR      7 -11  43 NW6       30.25R WCI  -3
SILVER BAY     CLEAR      3 -15  43 CALM      30.25S
GRAND MARAIS     N/A      1 -13  51 CALM      30.31F
G MARAIS ARPRT PTCLDY    -6 -18  54 NW6       30.17F WCI -18
$$
MNZ029>031-032-039>041-046>048-054>057-064-020100-
   West Central Minnesota

CITY           SKY/WX    TMP DP  RH WIND       PRES   REMARKS
FERGUS FALLS   CLEAR      3 -11  51 N8        30.39S WCI -10
WHEATON        CLEAR      1  -9  60 NW12      30.39S WCI -15
MORRIS         CLEAR      7  -6  56 N14       30.32S WCI -10
ALEXANDRIA     CLEAR      7 -10  46 N8        30.29R WCI  -6
ELBOW LAKE     FAIR       4  -7  59 N14       30.33R WCI -13
WADENA         CLEAR      1  -9  60 N6        30.30R WCI -10
GLENWOOD       CLEAR      7  -9  47 N12       30.29R WCI  -9
APPLETON       CLEAR      9  -6  52 N16       30.34R WCI  -9
BENSON         CLEAR      9  -8  47 N9        30.31S WCI  -5
ORTONVILLE     CLEAR      5  -9  51 N13G18    30.34F WCI -12
MADISON        CLEAR     10  -2  56 N18       30.35R WCI  -8
WILLMAR        FAIR      12  -8  40 N14       30.29S WCI  -3
$$
MNZ033>034-036-042>043-049>051-058-059-020100-
   Central Minnesota

CITY           SKY/WX    TMP DP  RH WIND       PRES   REMARKS
ST CLOUD       CLEAR      9 -11  40 N9        30.28R WCI  -4
6HR MIN TEMP:   9; 6HR MAX TEMP:  15;

SAUK CENTRE    FAIR       8 -11  41 N9        30.28S WCI  -6
PAYNESVILLE    CLEAR      8 -10  44 NW8       30.28S WCI  -5
AITKIN         CLEAR      7 -11  43 N6        30.28S WCI  -3
PINE RIVER     CLEAR      1  -9  60 N6        30.32F WCI -10
BRAINERD       CLEAR      4 -12  48 N10       30.29S WCI -11
STAPLES        CLEAR      3 -15  43 N5        30.30S WCI  -6
LONG PRAIRIE   FAIR       7 -11  43 NW7       30.29R WCI  -5
LITTLE FALLS   CLEAR      9 -13  37 N6        30.30S WCI  -1
LITCHFIELD     PTCLDY    10  -8  44 N10G18    30.27R WCI  -3
BUFFALO        CLEAR     12  -9  38 N10       30.27R WCI  -2
MAPLE LAKE     CLEAR     12  -7  43 N13G18    30.27R WCI  -3
$$
MNZ037-044-045-052-053-020100-
   East Central Minnesota

CITY           SKY/WX    TMP DP  RH WIND       PRES   REMARKS
PRINCETON      CLEAR     10  -9  40 NW10      30.27R WCI  -3
MORA           CLEAR      9 -15  33 N5        30.29R WCI   0
CAMBRIDGE      CLEAR     12  -6  44 N7        30.25R WCI   2
RUSH CITY      PTCLDY    10  -6  48 N8        30.27R WCI  -2
MOOSE LAKE     CLEAR      9 -13  37 N6        30.26S WCI  -1
HINCKLEY       FAIR      10  -9  40 N8        30.27R WCI  -1
CLOQUET        CLEAR      3 -15  43 NW8       30.25S WCI -10
MCGREGOR       CLEAR      5 -11  47 N8        30.28F WCI  -8
$$
MNZ071>073-080-081-089-090-097-098-020100-
   Southwest Minnesota

CITY           SKY/WX    TMP DP  RH WIND       PRES   REMARKS
MONTEVIDEO     CLEAR      9   0  66 N16       30.32R WCI  -9
GRANITE FALLS  CLEAR     11   0  61 NW14G20   30.32R WCI  -5
CANBY          CLEAR      6  -3  67 NW12      30.34R WCI  -9
MARSHALL       PTCLDY     7  -2  66 N22G28    30.30R WCI -14
OLIVIA         PTCLDY    14   1  57 N12G17    30.27R WCI   0
PIPESTONE      CLEAR      7   0  72 N10G18    30.24S WCI  -8
WINDOM         PTCLDY    10   3  72 N16       30.21S WCI  -7
WORTHINGTON    MOCLDY    21   1  42 N23G29    30.22R WCI   5
JACKSON        PTCLDY    12   3  67 N9        30.19S WCI   0
TRACY          PTCLDY    10   2  72 N16       30.26S WCI  -7
SLAYTON        PTCLDY     6   0  73 NW17      30.23S WCI -12
$$
MNZ065>067-074>077-082>085-091>093-020100-
   South Central Minnesota

CITY           SKY/WX    TMP DP  RH WIND       PRES   REMARKS
MANKATO        PTCLDY    12   1  62 N10       30.21R WCI  -1
NEW ULM        PTCLDY    12   0  57 N8        30.23R WCI   1
ST JAMES       PTCLDY    14   3  62 NW14      30.23S WCI  -1
FAIRMONT       PTCLDY    12   3  67 N16       30.18R WCI  -4
GLENCOE        PTCLDY    14   2  60 N14G22    30.24R WCI  -1
FARIBAULT      MOCLDY    12   1  62 N9        30.19S WCI   0
OWATONNA       MOCLDY    12   3  67 N12       30.17R WCI  -2
WASECA         MOCLDY    14   3  62 N13       30.20R WCI   0
ALBERT LEA     PTCLDY    12   3  67 N14G22    30.15R WCI  -3
$$
MNZ078>079-086>088-094>096-020100-
   Southeast Minnesota

CITY           SKY/WX    TMP DP  RH WIND       PRES   REMARKS
ROCHESTER      CLOUDY    13   1  59 N15       30.12R WCI  -3
6HR MIN TEMP:  12; 6HR MAX TEMP:  13; 6HR PCP: TRACE;

RED WING       MOCLDY    14   0  52 N7        30.20R WCI   4
STANTON        MOCLDY    14   3  61 N16       30.19R WCI  -2
DODGE CENTER   MOCLDY    12   5  73 N18       30.13R WCI  -5
WINONA         CLOUDY    18   5  57 N5        30.17R WCI  11
AUSTIN         MOCLDY    12   3  67 N13G18    30.12R WCI  -3
PRESTON        CLOUDY    11   2  65 N15G22    30.10R WCI  -5
$$
ABBREVIATIONS USED IN REMARKS
   TC - TEMPERATURES IN CELSIUS
  WCI - WIND CHILL INDEX
   HX - HEAT INDEX
  VSB - VISIBILITY
$$



USA.gov is the U.S. government's official web portal to all federal, state and local government web resources and services.